West Bend, WI

5:17 AM CDT on June 23, 2017 (GMT -0500)
West Bend Municipal

Weather History for KETB - October, 2012

Change the Weather History Date:

Sunday, October 7, 2012

  Actual Average Record
Temperature  
Mean Temperature 42 °F -  
Max Temperature 50 °F 61 °F 84 °F (2007)
Min Temperature 33 °F 41 °F 12 °F (1998)
Degree Days  
Heating Degree Days 24    
Moisture  
Dew Point 21 °F    
Average Humidity 47    
Maximum Humidity 75    
Minimum Humidity 24    
Precipitation  
Precipitation 0.00 in - - ()
Sea Level Pressure  
Sea Level Pressure 30.12 in    
Wind  
Wind Speed 4 mph (WNW)    
Max Wind Speed 12 mph    
Max Gust Speed 18 mph    
Visibility 10 miles    
Events      
Averages and records for this station are not official NWS values.
T = Trace of Precipitation, MM = Missing Value Source: NWS Daily Summary

Daily Weather History Graph

Daily Weather History Graph

Search for Another Location

Airport or City:

Trip Planner

Search our weather history database for the weather conditions in past years. The results will help you decide how hot, cold, wet, or windy it might be!

Date:

Astronomy

Oct. 07, 2012 Rise Set
Actual Time 6:57 AM CDT 6:22 PM CDT
Civil Twilight 6:28 AM CDT 6:50 PM CDT
Nautical Twilight 5:55 AM CDT 7:23 PM CDT
Astronomical Twilight 5:22 AM CDT 7:56 PM CDT
Moon 11:26 PM CDT (10/7) 1:41 PM CDT (10/7)
Length of Visible Light 12h 21m
Length of Day
11h 24m
Waning Gibbous, 56% of the Moon is Illuminated
Oct 7
Waning Gibbous
Oct 8
Last Quarter
Oct 15
New
Oct 21
First Quarter
Oct 29
Full

Hourly Weather History & Observations

Time (CDT) Temp. Windchill Dew Point Humidity Pressure Visibility Wind Dir Wind Speed Gust Speed Precip Events Conditions
12:15 AM 41.0 °F - 26.6 °F 57% 30.15 in 10.0 mi Calm Calm - N/A   Overcast
12:35 AM 41.0 °F - 26.6 °F 57% 30.15 in 10.0 mi Calm Calm - N/A   Overcast
12:55 AM 41.0 °F 39.0 °F 26.6 °F 57% 30.15 in 10.0 mi NNW 3.5 mph - N/A   Overcast
1:15 AM 41.0 °F 39.0 °F 26.6 °F 57% 30.15 in 10.0 mi NNW 3.5 mph - N/A   Overcast
2:15 AM 39.2 °F 37.0 °F 26.6 °F 61% 30.16 in 10.0 mi NW 3.5 mph - N/A   Overcast
2:35 AM 39.2 °F 37.0 °F 26.6 °F 61% 30.15 in 10.0 mi NNW 3.5 mph - N/A   Overcast
2:55 AM 39.2 °F 37.0 °F 26.6 °F 61% 30.15 in 10.0 mi NW 3.5 mph - N/A   Overcast
3:15 AM 37.4 °F 34.9 °F 26.6 °F 65% 30.15 in 10.0 mi NW 3.5 mph - N/A   Overcast
3:35 AM 37.4 °F 34.9 °F 26.6 °F 65% 30.14 in 10.0 mi NW 3.5 mph - N/A   Overcast
3:55 AM 37.4 °F - 26.6 °F 65% 30.14 in 10.0 mi Calm Calm - N/A   Overcast
4:15 AM 37.4 °F - 26.6 °F 65% 30.14 in 10.0 mi Calm Calm - N/A   Overcast
4:35 AM 37.4 °F 32.8 °F 26.6 °F 65% 30.14 in 10.0 mi WNW 5.8 mph - N/A   Overcast
4:55 AM 37.4 °F 32.1 °F 24.8 °F 60% 30.14 in 10.0 mi NW 6.9 mph - N/A   Overcast
5:15 AM 37.4 °F 33.8 °F 24.8 °F 60% 30.14 in 10.0 mi WNW 4.6 mph - N/A   Overcast
5:35 AM 37.4 °F 34.9 °F 24.8 °F 60% 30.14 in 10.0 mi WNW 3.5 mph - N/A   Overcast
5:55 AM 37.4 °F - 24.8 °F 60% 30.14 in 10.0 mi Calm Calm - N/A   Overcast
6:15 AM 35.6 °F - 26.6 °F 70% 30.14 in 10.0 mi Calm Calm - N/A   Overcast
6:55 AM 35.6 °F 32.8 °F 26.6 °F 70% 30.14 in 10.0 mi NW 3.5 mph - N/A   Overcast
7:15 AM 37.4 °F 32.8 °F 26.6 °F 65% 30.14 in 10.0 mi West 5.8 mph - N/A   Overcast
7:35 AM 37.4 °F 32.8 °F 26.6 °F 65% 30.14 in 10.0 mi West 5.8 mph - N/A   Overcast
7:55 AM 39.2 °F 34.2 °F 26.6 °F 61% 30.15 in 10.0 mi West 6.9 mph - N/A   Overcast
8:55 AM 41.0 °F 35.8 °F 24.8 °F 53% 30.16 in 10.0 mi West 8.1 mph - N/A   Overcast
9:15 AM 41.0 °F 36.4 °F 24.8 °F 53% 30.16 in 10.0 mi West 6.9 mph - N/A   Overcast
9:35 AM 41.0 °F 36.4 °F 24.8 °F 53% 30.16 in 10.0 mi WNW 6.9 mph - N/A   Overcast
9:55 AM 42.8 °F 37.0 °F 21.2 °F 42% 30.16 in 10.0 mi NW 10.4 mph - N/A   Overcast
10:15 AM 42.8 °F 37.5 °F 17.6 °F 36% 30.16 in 10.0 mi NW 9.2 mph - N/A   Overcast
10:35 AM 42.8 °F 37.0 °F 17.6 °F 36% 30.15 in 10.0 mi West 10.4 mph - N/A   Overcast
10:55 AM 42.8 °F 38.0 °F 19.4 °F 39% 30.15 in 10.0 mi WNW 8.1 mph - N/A   Overcast
11:15 AM 42.8 °F 38.6 °F 17.6 °F 36% 30.15 in 10.0 mi West 6.9 mph - N/A   Overcast
11:55 AM 44.6 °F 42.2 °F 15.8 °F 31% 30.15 in 10.0 mi West 4.6 mph - N/A   Overcast
12:15 PM 46.4 °F 44.3 °F 15.8 °F 29% 30.15 in 10.0 mi NNW 4.6 mph - N/A   Scattered Clouds
12:35 PM 46.4 °F 41.1 °F 15.8 °F 29% 30.13 in 10.0 mi NW 11.5 mph 18.4 mph N/A   Scattered Clouds
12:55 PM 46.4 °F 43.5 °F 15.8 °F 29% 30.12 in 10.0 mi SW 5.8 mph - N/A   Scattered Clouds
1:15 PM 46.4 °F - 15.8 °F 29% 30.11 in 10.0 mi Calm Calm - N/A   Scattered Clouds
1:35 PM 48.2 °F - 15.8 °F 27% 30.11 in 10.0 mi WNW 5.8 mph - N/A   Scattered Clouds
2:15 PM 48.2 °F - 15.8 °F 27% 30.10 in 10.0 mi NW 6.9 mph - N/A   Clear
2:35 PM 48.2 °F - 15.8 °F 27% 30.10 in 10.0 mi NW 6.9 mph 17.3 mph N/A   Scattered Clouds
2:55 PM 50.0 °F - 15.8 °F 26% 30.09 in 10.0 mi WNW 5.8 mph 9.2 mph N/A   Scattered Clouds
3:15 PM 50.0 °F - 15.8 °F 26% 30.08 in 10.0 mi WSW 6.9 mph - N/A   Clear
3:35 PM 50.0 °F - 15.8 °F 26% 30.08 in 10.0 mi WSW 6.9 mph - N/A   Clear
3:55 PM 50.0 °F - 15.8 °F 26% 30.08 in 10.0 mi West 10.4 mph - N/A   Clear
4:15 PM 50.0 °F - 14.0 °F 24% 30.08 in 10.0 mi WNW 9.2 mph - N/A   Clear
4:35 PM 50.0 °F - 14.0 °F 24% 30.07 in 10.0 mi West 6.9 mph - N/A   Clear
4:55 PM 48.2 °F - 15.8 °F 27% 30.07 in 10.0 mi WNW 5.8 mph - N/A   Clear
5:15 PM 48.2 °F - 15.8 °F 27% 30.07 in 10.0 mi WSW 8.1 mph - N/A   Clear
5:35 PM 46.4 °F 42.9 °F 17.6 °F 32% 30.07 in 10.0 mi West 6.9 mph - N/A   Clear
5:55 PM 46.4 °F 44.3 °F 17.6 °F 32% 30.07 in 10.0 mi WSW 4.6 mph - N/A   Clear
6:15 PM 44.6 °F 43.1 °F 17.6 °F 34% 30.07 in 10.0 mi WSW 3.5 mph - N/A   Clear
6:35 PM 44.6 °F 43.1 °F 17.6 °F 34% 30.07 in 10.0 mi SW 3.5 mph - N/A   Clear
6:55 PM 41.0 °F - 19.4 °F 42% 30.07 in 10.0 mi Calm Calm - N/A   Clear
7:15 PM 39.2 °F - 21.2 °F 49% 30.07 in 10.0 mi Calm Calm - N/A   Clear
7:35 PM 37.4 °F - 23.0 °F 56% 30.07 in 10.0 mi Calm Calm - N/A   Clear
7:55 PM 35.6 °F - 23.0 °F 60% 30.08 in 10.0 mi Calm Calm - N/A   Clear
8:15 PM 33.8 °F - 26.6 °F 75% 30.08 in 10.0 mi Calm Calm - N/A   Clear
8:35 PM 35.6 °F - 21.2 °F 56% 30.08 in 10.0 mi Calm Calm - N/A   Clear